Location: Mountain View
(37.3861°N, 122.0839°W)
Time: 15:03:55
(UTC-08:00)

Envisat - Visible Passes

Search period start: 18 December 2018 00:00
Search period end: 28 December 2018 00:00
Orbit: 764 x 766 km, 98.2° (Epoch: 18 December)

Date Brightness Start Highest point End Pass type
(mag) Time Alt. Az. Time Alt. Az. Time Alt. Az.
18 Dec 2.9 18:46:26 10° SSE 18:51:27 65° ENE 18:56:30 10° N visible
18 Dec 5.9 20:28:45 10° WSW 20:30:53 13° W 20:33:02 10° WNW visible
19 Dec 3.7 18:10:36 10° SE 18:14:54 29° ENE 18:19:14 10° N visible
19 Dec 4.7 19:49:26 10° SSW 19:53:49 30° W 19:58:15 10° NW visible
20 Dec 6.3 06:23:51 10° ENE 06:25:08 11° E 06:26:25 10° ESE visible
20 Dec 4.6 17:36:16 10° E 17:38:35 13° ENE 17:40:54 10° NE visible
20 Dec 3.2 19:11:55 10° S 19:16:58 70° WSW 19:22:03 10° NNW visible
21 Dec 3.1 18:35:24 10° SSE 18:40:18 51° ENE 18:45:13 10° N visible
21 Dec 5.6 20:16:26 10° SW 20:19:34 16° W 20:22:44 10° NW visible
22 Dec 5.8 06:47:11 10° NE 06:50:57 21° E 06:54:41 10° SE visible
22 Dec 4.0 17:59:54 10° ESE 18:03:49 23° ENE 18:07:45 10° NNE visible
22 Dec 4.3 19:37:53 10° SSW 19:42:34 38° W 19:47:18 10° NNW visible
23 Dec 4.8 17:26:57 10° ENE 17:27:33 10° ENE 17:28:08 10° NE visible
23 Dec 2.9 19:00:42 10° SSE 19:05:46 89° WSW 19:10:53 10° NNW visible
24 Dec 3.3 18:24:27 10° SE 18:29:09 40° ENE 18:33:52 10° N visible
24 Dec 5.3 20:04:29 10° SW 20:08:17 21° W 20:12:06 10° NW visible
25 Dec 5.9 06:36:33 10° NE 06:39:39 16° E 06:42:44 10° SE visible
25 Dec 4.3 17:49:20 10° ESE 17:52:44 18° ENE 17:56:08 10° NNE visible
25 Dec 3.8 19:26:27 10° S 19:31:20 49° W 19:36:16 10° NNW visible
26 Dec 2.8 18:49:33 10° SSE 18:54:35 72° ENE 18:59:40 10° N visible
26 Dec 6.0 20:32:36 10° WSW 20:34:05 11° W 20:35:34 10° WNW visible
27 Dec 3.6 18:13:36 10° SE 18:18:02 31° ENE 18:22:29 10° N visible
27 Dec 4.9 19:52:45 10° SSW 19:57:00 27° W 20:01:17 10° NW visible
